HB9KNR Weather Reports


time (UTC)temp
C
wind
direction
speed
KPH
gust
KPH
rain 1hr
cm
rain 24hr
cm
rain mn
cm
humidity
%
barometer
mb
20220811232521 17 0.0 1.6 0.00 0.00 0.00 65 1018.4
20220811231521 17 0.0 1.6 0.00 0.00 0.00 67 1018.4
20220811230518 18 0.0 0.0 0.00 0.00 0.00 68 1018.4
20220811225516 18 0.0 0.0 0.00 0.00 0.00 68 1018.4
20220811224543 18 0.0 0.0 0.00 0.00 0.00 67 1018.4
20220811223523 18 0.0 0.0 0.00 0.00 0.00 66 1018.4
20220811222605 18 0.0 1.6 0.00 0.00 0.00 66 1018.3
20220811221543 18 0.0 3.2 0.00 0.00 0.00 66 1018.4
20220811220543 18 0.0 3.2 0.00 0.00 0.00 65 1018.3
20220811215544 19 0.0 1.6 0.00 0.00 0.00 65 1018.3
20220811214522 19 0.0 3.2 0.00 0.00 0.00 65 1018.4
20220811213617 19 203 1.6 4.8 0.00 0.00 0.00 66 1018.4
20220811212544 19 0.0 3.2 0.00 0.00 0.00 66 1018.3
20220811211522 19 203 1.6 4.8 0.00 0.00 0.00 66 1018.2
20220811210522 19 203 1.6 4.8 0.00 0.00 0.00 66 1018.2
20220811205606 20 203 1.6 4.8 0.00 0.00 0.00 65 1018.2
20220811204524 20 203 1.6 6.4 0.00 0.00 0.00 65 1018.1
20220811202517 20 68 1.6 4.8 0.00 0.00 0.00 64 1017.9
20220811201522 21 68 1.6 4.8 0.00 0.00 0.00 63 1018.0
20220811200646 21 0.0 3.2 0.00 0.00 0.00 62 1018.0
20220811195524 21 68 1.6 6.4 0.00 0.00 0.00 61 1017.9
20220811194522 22 0.0 4.8 0.00 0.00 0.00 59 1017.8
20220811193544 23 0.0 3.2 0.00 0.00 0.00 58 1017.9
20220811192524 23 68 1.6 3.2 0.00 0.00 0.00 56 1017.9
20220811191537 24 0.0 3.2 0.00 0.00 0.00 54 1017.8
20220811190524 24 68 1.6 3.2 0.00 0.00 0.00 51 1017.7
20220811185522 25 0.0 4.8 0.00 0.00 0.00 49 1017.7
20220811184542 25 0.0 4.8 0.00 0.00 0.00 49 1017.6
20220811183522 25 45 1.6 6.4 0.00 0.00 0.00 48 1017.6
20220811182522 25 0.0 3.2 0.00 0.00 0.00 48 1017.7
20220811181558 26 45 3.2 8.0 0.00 0.00 0.00 48 1017.6
20220811180516 26 45 1.6 4.8 0.00 0.00 0.00 47 1017.5
20220811175622 26 0.0 4.8 0.00 0.00 0.00 45 1017.4
20220811174542 26 0.0 6.4 0.00 0.00 0.00 45 1017.3
20220811173523 26 45 1.6 8.0 0.00 0.00 0.00 44 1017.2
20220811172522 26 113 1.6 4.8 0.00 0.00 0.00 45 1017.0
20220811171522 26 0.0 0.0 0.00 0.00 0.00 46 1017.0
20220811170621 26 0.0 4.8 0.00 0.00 0.00 46 1017.0
20220811165516 26 0.0 3.2 0.00 0.00 0.00 46 1017.0
20220811164648 26 0.0 1.6 0.00 0.00 0.00 46 1017.0
20220811163542 26 0.0 3.2 0.00 0.00 0.00 48 1017.1
20220811162542 26 0.0 1.6 0.00 0.00 0.00 47 1017.3
20220811161522 26 0.0 1.6 0.00 0.00 0.00 46 1017.4
20220811160542 26 0.0 4.8 0.00 0.00 0.00 46 1017.5
20220811155559 27 0.0 6.4 0.00 0.00 0.00 45 1017.6
20220811154542 27 0.0 4.8 0.00 0.00 0.00 45 1017.8
20220811153542 27 0.0 3.2 0.00 0.00 0.00 47 1017.9
20220811152544 27 0.0 1.6 0.00 0.00 0.00 44 1017.9
20220811151627 27 0.0 3.2 0.00 0.00 0.00 45 1018.0
20220811150523 27 0.0 4.8 0.00 0.00 0.00 46 1018.0
20220811145522 27 0.0 4.8 0.00 0.00 0.00 47 1018.2
20220811144516 27 0.0 3.2 0.00 0.00 0.00 47 1018.3
20220811143602 27 0.0 4.8 0.00 0.00 0.00 46 1018.3
20220811142543 27 0.0 4.8 0.00 0.00 0.00 47 1018.4
20220811141521 27 0.0 4.8 0.00 0.00 0.00 48 1018.4
20220811140522 27 0.0 4.8 0.00 0.00 0.00 47 1018.4
20220811135542 27 0.0 4.8 0.00 0.00 0.00 46 1018.6
20220811134704 27 0.0 4.8 0.00 0.00 0.00 49 1018.8
20220811133516 27 0.0 4.8 0.00 0.00 0.00 48 1018.8
20220811132602 27 0.0 6.4 0.00 0.00 0.00 49 1018.9
20220811131625 27 0.0 1.6 0.00 0.00 0.00 48 1019.2
20220811130605 27 0.0 4.8 0.00 0.00 0.00 49 1019.2
20220811125522 26 0.0 4.8 0.00 0.00 0.00 50 1019.2
20220811124605 26 45 1.6 8.0 0.00 0.00 0.00 48 1019.2
20220811123642 26 0.0 4.8 0.00 0.00 0.00 50 1019.4
20220811122557 26 0.0 3.2 0.00 0.00 0.00 50 1019.5
20220811121521 26 45 1.6 6.4 0.00 0.00 0.00 50 1019.7
20220811120521 26 45 1.6 8.0 0.00 0.00 0.00 50 1019.8
20220811115523 25 45 3.2 11.3 0.00 0.00 0.00 52 1019.8
20220811114542 25 158 1.6 12.9 0.00 0.00 0.00 51 1019.9
20220811113603 25 90 1.6 6.4 0.00 0.00 0.00 52 1020.0
20220811112536 25 0.0 4.8 0.00 0.00 0.00 52 1020.0
20220811111518 25 90 1.6 8.0 0.00 0.00 0.00 51 1020.1
20220811110522 24 68 1.6 8.0 0.00 0.00 0.00 53 1020.1
20220811105542 24 45 6.4 14.5 0.00 0.00 0.00 51 1020.1
20220811104543 24 45 1.6 8.0 0.00 0.00 0.00 55 1020.2
20220811103646 24 45 1.6 6.4 0.00 0.00 0.00 55 1020.3
20220811102542 23 0.0 3.2 0.00 0.00 0.00 56 1020.2
20220811101516 23 0.0 3.2 0.00 0.00 0.00 55 1020.1
20220811100521 23 180 1.6 6.4 0.00 0.00 0.00 57 1020.1
20220811095543 22 45 1.6 8.0 0.00 0.00 0.00 57 1020.1
20220811094602 22 0.0 4.8 0.00 0.00 0.00 57 1020.2
20220811093523 21 0.0 4.8 0.00 0.00 0.00 59 1020.2
20220811092540 21 23 1.6 4.8 0.00 0.00 0.00 59 1020.1
20220811091602 21 0.0 1.6 0.00 0.00 0.00 60 1020.2
20220811090616 21 0.0 3.2 0.00 0.00 0.00 59 1020.2
20220811085543 20 0.0 1.6 0.00 0.00 0.00 60 1020.3
20220811084522 20 0.0 0.0 0.00 0.00 0.00 61 1020.3
20220811082605 20 0.0 4.8 0.00 0.00 0.00 60 1020.3
20220811081625 20 0.0 8.0 0.00 0.00 0.00 62 1020.2
20220811080541 20 0.0 4.8 0.00 0.00 0.00 63 1020.4
20220811075536 20 0.0 4.8 0.00 0.00 0.00 63 1020.3
20220811074603 19 0.0 3.2 0.00 0.00 0.00 61 1020.3
20220811073541 19 0.0 3.2 0.00 0.00 0.00 62 1020.5
20220811072542 19 0.0 0.0 0.00 0.00 0.00 63 1020.5
20220811071521 18 0.0 1.6 0.00 0.00 0.00 63 1020.5
20220811070521 18 0.0 0.0 0.00 0.00 0.00 65 1020.5
20220811064540 18 0.0 4.8 0.00 0.00 0.00 65 1020.5
20220811063543 18 0.0 0.0 0.00 0.00 0.00 68 1020.5
20220811062521 17 0.0 4.8 0.00 0.00 0.00 68 1020.5
20220811061541 17 23 1.6 8.0 0.00 0.00 0.00 67 1020.5
20220811060541 17 0.0 3.2 0.00 0.00 0.00 69 1020.5
20220811055543 17 315 1.6 4.8 0.00 0.00 0.00 70 1020.4
20220811054538 16 0.0 3.2 0.00 0.00 0.00 75 1020.3
20220811053516 14 0.0 0.0 0.00 0.00 0.00 84 1020.3
20220811052543 14 0.0 0.0 0.00 0.00 0.00 83 1020.2
20220811051541 13 0.0 0.0 0.00 0.00 0.00 82 1020.0
20220811050647 13 0.0 0.0 0.00 0.00 0.00 81 1020.0
20220811045521 13 0.0 1.6 0.00 0.00 0.00 80 1019.9
20220811044643 13 0.0 1.6 0.00 0.00 0.00 79 1020.0
20220811043516 13 0.0 3.2 0.00 0.00 0.00 79 1019.9
20220811042516 14 0.0 0.0 0.00 0.00 0.00 78 1020.0
20220811041601 14 0.0 3.2 0.00 0.00 0.00 78 1020.0
20220811040541 14 0.0 3.2 0.00 0.00 0.00 78 1020.0
20220811035523 14 0.0 3.2 0.00 0.00 0.00 77 1019.9
20220811034541 15 0.0 1.6 0.00 0.00 0.00 77 1020.0
20220811033543 15 0.0 1.6 0.00 0.00 0.00 77 1020.1
20220811032516 15 0.0 3.2 0.00 0.00 0.00 76 1019.9
20220811031705 15 0.0 1.6 0.00 0.00 0.00 76 1019.9
20220811030521 15 225 1.6 4.8 0.00 0.00 0.00 76 1019.9
20220811025601 15 225 1.6 4.8 0.00 0.00 0.00 75 1020.0
20220811024601 15 225 1.6 4.8 0.00 0.00 0.00 75 1020.1
20220811023539 15 225 1.6 3.2 0.00 0.00 0.00 75 1020.2
20220811022523 15 0.0 0.0 0.00 0.00 0.00 74 1020.2
20220811021536 15 0.0 0.0 0.00 0.00 0.00 74 1020.2
20220811020521 15 0.0 1.6 0.00 0.00 0.00 74 1020.1
20220811015544 15 0.0 0.0 0.00 0.00 0.00 73 1020.2
20220811014523 15 0.0 1.6 0.00 0.00 0.00 72 1020.2
20220811013521 15 0.0 3.2 0.00 0.00 0.00 72 1020.2
20220811012521 16 0.0 3.2 0.00 0.00 0.00 72 1020.1
20220811011521 16 225 1.6 4.8 0.00 0.00 0.00 71 1020.2
20220811010516 16 225 1.6 4.8 0.00 0.00 0.00 71 1020.2
20220811005542 16 225 1.6 4.8 0.00 0.00 0.00 71 1020.2
20220811004522 16 225 1.6 4.8 0.00 0.00 0.00 70 1020.3
20220811003643 16 225 1.6 4.8 0.00 0.00 0.00 70 1020.3
20220811002521 16 0.0 3.2 0.00 0.00 0.00 69 1020.2
20220811001541 16 0.0 3.2 0.00 0.00 0.00 69 1020.4
20220811000603 16 225 1.6 4.8 0.00 0.00 0.00 68 1020.4
20220810235639 16 225 1.6 6.4 0.00 0.00 0.00 67 1020.3
20220810234521 17 225 1.6 4.8 0.00 0.00 0.00 66 1020.3
20220810233624 17 225 1.6 4.8 0.00 0.00 0.00 65 1020.4